Home > Weather > Norwich > Past weeks

Flag for United Kingdom Past Weather in Norwich, England, United Kingdom — Yesterday and Last 2 Weeks

Now
59 °F

Light rain. Partly sunny.


Feels Like: 55 °F
Forecast: 56 / 66 °F
Wind: 20 mph from Southwest

Location: Norwich Weather Centre

Current Time: Jun 29, 2016 at 5:32:53 PM

Latest Report: Jun 29, 2016 at 4:50 PM


Visibility: 5 mi

Pressure: 29.68 "Hg

Humidity: 94%

Dew Point: 57 °F

Location of NorwichLocation

Past Weather in Norwich — Graph

°F

Norwich Temperature Yesterday

Maximum temperature yesterday: 68 °F (at 1:20 PM)
Minimum temperature yesterday: 46 °F (at 3:50 AM)
Average temperature yesterday: 58 °F

High & Low Weather Summary for the Past Weeks

 TemperatureHumidityPressure
High73 °F (Jun 21, 2:50 PM)100% (Jun 15, 2:20 AM)30.21 "Hg (Jun 15, 2:20 AM)
Low46 °F (Jun 19, 12:20 AM)52% (Jun 27, 5:50 PM)29.33 "Hg (Jun 14, 4:50 PM)
Average60 °F86%29.90 "Hg
* Reported Jun 14 4:20 PM — Jun 29 4:20 PM, Norwich, Weather by CustomWeather, © 2016

Note: Actual official high and low records may vary slightly from our data, if they occured in-between our weather recording intervals... More about our weather records

Advertising

Norwich Weather History for the Previous 24 Hours

Scroll right to see more
 ConditionsComfort  
Time TempWeatherWind HumidityBarometerVisibility
4:20 PM
Wed, Jun 29
59 °FSprinkles. Broken clouds.16 mph94%29.71 "Hg5 mi
3:50 PM59 °FSprinkles. Partly sunny.17 mph88%29.71 "Hg5 mi
3:20 PM59 °FSprinkles. Partly sunny.16 mph88%29.71 "Hg5 mi
2:50 PM59 °FSprinkles. Partly sunny.17 mph88%29.71 "HgN/A
2:20 PM61 °FSprinkles. Partly sunny.16 mph83%29.71 "HgN/A
1:50 PM61 °FSprinkles. Broken clouds.14 mph83%29.74 "Hg5 mi
1:20 PM63 °FSprinkles. Broken clouds.18 mph73%29.74 "HgN/A
12:50 PM64 °FPassing clouds.20 mph64%29.74 "HgN/A
12:20 PM64 °FPassing clouds.17 mph64%29.74 "HgN/A
11:50 AM64 °FPassing clouds.15 mph68%29.77 "HgN/A
11:20 AM64 °FPassing clouds.15 mph68%29.77 "HgN/A
10:50 AM63 °FPassing clouds.13 mph73%29.77 "HgN/A
10:20 AM61 °FPassing clouds.12 mph77%29.77 "HgN/A
9:20 AM59 °FScattered clouds.12 mph88%29.77 "HgN/A
8:50 AM57 °FScattered clouds.10 mph88%29.80 "HgN/A
8:20 AM57 °FScattered clouds.10 mph88%29.80 "HgN/A
7:50 AM55 °FBroken clouds.12 mph94%29.80 "HgN/A
7:20 AM55 °FPartly sunny.10 mph94%29.80 "Hg6 mi
6:50 AM54 °FLow clouds.10 mph94%29.80 "Hg6 mi
6:20 AM54 °FPartly sunny.12 mph94%29.77 "Hg5 mi
5:50 AM54 °FScattered clouds.10 mph100%29.77 "HgN/A
5:20 AM54 °FMostly cloudy.12 mph100%29.77 "HgN/A
4:20 AM55 °FPartly cloudy.9 mph100%29.74 "HgN/A
3:50 AM55 °FOvercast.7 mph100%29.74 "HgN/A
3:20 AM54 °FMostly cloudy.7 mph100%29.74 "HgN/A
2:50 AM54 °FPassing clouds.7 mph100%29.71 "HgN/A
2:20 AM50 °FCool.3 mph100%29.71 "HgN/A
1:20 AM54 °FPassing clouds.3 mph100%29.71 "HgN/A
12:50 AM54 °FPassing clouds.3 mph100%29.71 "HgN/A
12:20 AM54 °FPassing clouds.5 mph100%29.71 "HgN/A
11:20 PM
Tue, Jun 28
54 °FMostly cloudy.3 mph100%29.74 "HgN/A
10:50 PM54 °FPassing clouds.3 mph100%29.74 "HgN/A
10:20 PM54 °FHeavy rain. Partly sunny.7 mph94%29.74 "Hg1 mi
9:50 PM54 °FLight rain. Scattered clouds.8 mph94%29.77 "Hg4 mi
9:20 PM55 °FLight rain. Passing clouds.9 mph94%29.77 "Hg6 mi
8:50 PM57 °FLight rain. Broken clouds.7 mph94%29.77 "Hg6 mi
8:20 PM57 °FSprinkles. Broken clouds.8 mph94%29.77 "Hg6 mi
7:50 PM57 °FBroken clouds.8 mph94%29.77 "Hg6 mi
7:20 PM57 °FRain. Broken clouds.10 mph100%29.80 "Hg3 mi
6:50 PM59 °FRain. Broken clouds.10 mph94%29.80 "Hg3 mi
6:20 PM59 °FLight rain. Scattered clouds.10 mph82%29.80 "HgN/A
5:50 PM61 °FLight rain. Scattered clouds.14 mph72%29.83 "HgN/A
5:20 PM63 °FScattered clouds.13 mph68%29.83 "HgN/A
Weather by CustomWeather, © 2016

See weather overviewHow to use our weather pages